TimeEDT,TemperatureF,Dew PointF,Humidity,Sea Level PressureIn,VisibilityMPH,Wind Direction,Wind SpeedMPH,Gust SpeedMPH,PrecipitationIn,Events,Conditions,WindDirDegrees,DateUTC
12:14 AM,75.2,69.8,83,29.72,10.0,West,8.1,-,0.00,Rain-Thunderstorm,Light Thunderstorms and Rain,280,2013-06-28 04:14:00
12:23 AM,73.4,69.8,88,29.73,6.0,West,11.5,-,0.04,Rain-Thunderstorm,Light Thunderstorms and Rain,270,2013-06-28 04:23:00
12:30 AM,73.4,71.6,94,29.72,7.0,WNW,5.8,-,0.04,Thunderstorm,Thunderstorm,290,2013-06-28 04:30:00
12:46 AM,73.4,71.6,94,29.72,7.0,North,6.9,-,0.04,,Mostly Cloudy,10,2013-06-28 04:46:00
12:56 AM,73.9,68.0,82,29.69,10.0,North,4.6,-,N/A,,Mostly Cloudy,350,2013-06-28 04:56:00
1:56 AM,72.0,69.1,91,29.67,9.0,South,5.8,-,N/A,,Partly Cloudy,190,2013-06-28 05:56:00
2:56 AM,71.1,68.0,90,29.66,10.0,SSW,8.1,-,N/A,,Scattered Clouds,210,2013-06-28 06:56:00
3:56 AM,71.1,68.0,90,29.65,10.0,West,5.8,-,N/A,,Partly Cloudy,270,2013-06-28 07:56:00
4:56 AM,71.1,68.0,90,29.64,10.0,West,10.4,-,N/A,,Clear,270,2013-06-28 08:56:00
5:56 AM,71.1,66.9,87,29.64,10.0,West,11.5,-,N/A,,Partly Cloudy,280,2013-06-28 09:56:00
6:56 AM,70.0,66.9,90,29.64,10.0,West,9.2,-,N/A,,Partly Cloudy,280,2013-06-28 10:56:00
7:56 AM,72.0,66.9,84,29.65,10.0,WNW,13.8,-,N/A,,Partly Cloudy,290,2013-06-28 11:56:00
8:56 AM,73.9,66.0,76,29.65,10.0,WNW,16.1,-,N/A,,Clear,290,2013-06-28 12:56:00
9:56 AM,77.0,66.9,71,29.64,10.0,WNW,12.7,-,N/A,,Partly Cloudy,290,2013-06-28 13:56:00
10:56 AM,79.0,66.9,66,29.63,10.0,West,15.0,-,N/A,,Clear,280,2013-06-28 14:56:00
11:56 AM,81.0,66.0,60,29.63,10.0,WNW,19.6,23.0,N/A,,Scattered Clouds,290,2013-06-28 15:56:00
12:56 PM,80.1,66.0,62,29.63,10.0,WNW,16.1,-,N/A,,Mostly Cloudy,300,2013-06-28 16:56:00
1:56 PM,84.0,62.1,47,29.61,10.0,West,21.9,28.8,N/A,,Mostly Cloudy,280,2013-06-28 17:56:00
2:56 PM,84.0,60.1,44,29.60,10.0,WNW,19.6,28.8,N/A,,Scattered Clouds,290,2013-06-28 18:56:00
3:56 PM,77.0,61.0,58,29.61,10.0,West,19.6,-,0.02,,Mostly Cloudy,280,2013-06-28 19:56:00
4:56 PM,66.0,57.9,75,29.66,6.0,WNW,11.5,-,0.01,Rain,Rain,290,2013-06-28 20:56:00
5:56 PM,69.1,61.0,75,29.61,10.0,WSW,6.9,-,0.01,,Mostly Cloudy,240,2013-06-28 21:56:00
6:56 PM,68.0,60.1,76,29.62,10.0,WSW,11.5,-,N/A,,Mostly Cloudy,240,2013-06-28 22:56:00
7:56 PM,69.1,62.1,78,29.62,10.0,WSW,11.5,-,N/A,,Mostly Cloudy,250,2013-06-28 23:56:00
8:56 PM,68.0,62.1,81,29.61,10.0,WSW,9.2,-,0.00,,Mostly Cloudy,240,2013-06-29 00:56:00
9:56 PM,66.0,62.1,87,29.62,10.0,WSW,6.9,-,N/A,,Mostly Cloudy,250,2013-06-29 01:56:00
10:56 PM,66.0,61.0,84,29.62,10.0,West,11.5,-,N/A,,Scattered Clouds,260,2013-06-29 02:56:00
11:56 PM,66.0,61.0,84,29.61,10.0,West,8.1,-,N/A,,Scattered Clouds,260,2013-06-29 03:56:00